STARLINK-2633

operational
NORAD ID: 48435 Int'l Des: 2021-040 Owner: SPXS Country: US Constellation: starlink
LEOCIRCULARSTARLINK_TYPE

Über STARLINK-2633

Beschreibung wird geladen...

Live-Position

3D-Globus wird geladen...

Nächste Überflüge

Höhenverlauf

Altitude vs Time

uPlot chart will show altitude changes over time

Zweizeiliger Elementsatz

1 48435U 21040H 25251.44815072 .00000183 00000-0 31190-4 0 9997
2 48435 53.0547 264.7421 0001255 85.6045 274.5087 15.06404164239364
Epoch: 8. Sept. 2025 • Age: 24 hours

Aktueller Status

Höhe 556.6 km
Geschwindigkeit 7.58 km/s
Subsatellitenpunkt -29.45°S, 89.5°E
Startdatum 9. Mai 2021
Alter 4.3 years
Typ internet

Technische Details

Klassifizierung Payload
Masse 260.00 kg
Trockenmasse 248.00 kg
Gesamtmasse 260.00 kg
Länge 0.20 m
Durchmesser 2.80 m
Spannweite 9.00 m
Form Box + pan
Hersteller SPXS
Bus-Typ Starlink
Phasenstatus In Orbit
Besitzer/Staat SPXS/US

Große Konstellationen

Loading constellations...